Flag for Japan Weather past 2 weeks in Sapporo, Japan

Now
61 °F

Cool.


Feels Like: 61 °F
Forecast: 50 / 70 °F
Wind: 2 mph from West

Location: Sapporo

Current Time: Sep 20, 2014 at 3:37:37 PM

Latest Report: Sep 20, 2014 at 2:00 PM


Visibility: N/A

Pressure: 29.90 "Hg

Humidity: 80%

Dew point: 55 °F

Location of SapporoLocation

Historic Weather in Sapporo — Graph

°F

Sapporo temperature yesterday

Maximum temperature yesterday: 66 °F (at 2:00 PM)
Minimum temperature yesterday: 56 °F (at 3:00 AM)
Average temperature yesterday: 60 °F

Past Weeks' High & Low Weather Summary

 TemperatureHumidityPressure
High80 °F (Sep 6, 12:00 PM)94% (Sep 20, 4:00 AM)30.01 "Hg (Sep 20, 4:00 AM)
Low53 °F (Sep 15, 3:00 AM)39% (Sep 6, 3:00 PM)29.72 "Hg (Sep 18, 2:00 PM)
Average65 °F69%29.83 "Hg
* Reported Sep 5 2:00 PM — Sep 20 2:00 PM, Sapporo, Weather by CustomWeather, © 2014

Note: Actual official high and low records may vary slightly from our data, if they occured in-between our weather recording intervals... More about our weather records

Advertising

Sapporo weather history for previous 24 hours

 ConditionsComfort  
Time TempWeatherWind HumidityBarometerVisibility
2:00 PM
Sep 20
61 °FCool.2 mph80%29.90 "HgN/A
1:00 PM67 °FMild.8 mph46%29.89 "HgN/A
12:00 PM68 °FPassing clouds.5 mph47%29.89 "Hg19 mi
11:00 AM66 °FMild.8 mph50%29.90 "HgN/A
10:00 AM65 °FMild.5 mph56%29.91 "HgN/A
9:00 AM63 °FPassing clouds.3 mph59%29.91 "Hg16 mi
8:00 AM59 °FCool.1 mph74%29.91 "HgN/A
7:00 AM55 °FCool.3 mph87%29.92 "HgN/A
5:00 AM55 °FCool.3 mph90%29.87 "HgN/A
4:00 AM54 °FCool.2 mph94%29.88 "HgN/A
3:00 AM55 °FRain showers. Overcast.10 mph90%29.86 "Hg1 mi
2:00 AM55 °FCool.6 mph90%29.86 "HgN/A
1:00 AM55 °FCool.3 mph90%29.86 "HgN/A
12:00 AM56 °FCool.7 mph85%29.84 "HgN/A
11:00 PM
Sep 19
58 °FCool.8 mph72%29.81 "HgN/A
10:00 PM58 °FCool.6 mph76%29.80 "HgN/A
9:00 PM57 °FPassing clouds.7 mph76%29.81 "Hg9 mi
8:00 PM58 °FCool.9 mph76%29.81 "HgN/A
7:00 PM60 °FCool.12 mph75%29.80 "HgN/A
6:00 PM59 °FRain showers. Passing clouds.9 mph77%29.77 "Hg6 mi
5:00 PM64 °FMild.7 mph57%29.76 "HgN/A
4:00 PM65 °FMild.15 mph56%29.75 "HgN/A
3:00 PM65 °FPartly sunny.17 mph60%29.75 "Hg12 mi
Weather by CustomWeather, © 2014

See weather overviewHow to use our weather pages